COSMOS 886 DEB, 9953

Orbit data source: Space-Track

COSMOS 886 DEB, 9953 is space debris in LEO originally from a launch on Mon, 27 Dec 1976 UTC launched from the Tyuratam Missile And Space Complex (TTMTR). Debris objects in space refer to the collection of defunct objects orbiting the Earth. Examples of debris include non-operational satellites, rocket bodies, and fragments generated from explosions, collisions, or faulty payload assembly.

Loading next visibility...
Identifier
9953, 1976-126AT
Orbit
LEO
Country
Flag of CISCIS
Related business
Manufacturer
Unknown
Mission
Spacecraft
Bus & Motor
Unknown
Mass
Unknown
Launch date (UTC)
1976-12-27 (49 years ago)
Launch vehicle
Unknown
Launch site
Tyuratam Missile And Space Complex (TTMTR)
Object type
Payload
Rocket body
Debris
Shape & HBR
Unknown shape, 0.1 m
Radar Cross Section
Medium (>0.1 m² and <1 m²)

Expand to show TLE details & history
Last TLE update: 4 days ago

TLE from 4 days ago
0 COSMOS 886 DEB
1 09953U 76126AT  26172.05383065  .00001414  00000-0  61201-3 0  9999
2 09953  65.8475  58.5407 0847410 198.6530 158.1618 13.14029921328878
Epoch: 2026-06-21T01:17Z
TLE epoch observation values (Epoch: 2026-06-21T01:17:30.968Z)
Latitude
0.00006°
Longitude
129.90208°
Altitude
1,813.016 km
Speed
6.694 km/s
True Right ascension
03h 54m 09s
True Declination
0° 00' 00"
Sunlit
Object was in daylight at epoch
Visualization orbit readout
Latitude
Unknown
Longitude
Unknown
Altitude
Unknown
Speed
Unknown
Apparent Right ascension
Unknown
Apparent Declination
Unknown
Sunlit
N/A
Visualization observer readout
Local Sidereal Time
01:48:06
Azimuth
Unknown
Elevation
Unknown
Doppler factor
Unknown
Orbital elements
Apogee altitude
1,848.854 km
Perigee altitude
563.454 km
Semi-major axis
7,584.291 km
Eccentricity
0.08474
Inclination
65.8475°
RAAN
58.5407°
Arg. of periapsis
198.653°
True anomaly
161.44787°
Mean anomaly
158.1618°
Eccentric anomaly
159.8355°
Mean motion
3.28602 °/min
Orbital period
109.55 mins
BSTAR
0.00061201
Loading maneuver chart data...
Computing Atmospheric mass density...

Documentation

Showing up to 5 results
|